When you browse on this site, cookies collect data to enhance your experience and personalize the content and advertising you see.
Visit our Privacy Policy to learn more. By continuing to use the site, you agree to this use of cookies and data.
  • En España
  • Lista de países
  • Para 7 días
  • Temperatura del agua
  • El tiempo en el mapa
  • Informadores
  • user-avatar
    Iniciar sesión

    Tiempo cada hora Bristol

    Hoy, 13 Diciembre, Viernes

    Tiempo Temperatura Precipitaciones Viento Presión Humedad
    00:00 +5°C° 0 mm 9 mps 728 mmHg 85%
    01:00 +5°C° 0 mm 9 mps 728 mmHg 83%
    02:00 +5°C° 0 mm 10 mps 729 mmHg 81%
    03:00 +3°C° 0 mm 10 mps 729 mmHg 80%
    04:00 +3°C° 0 mm 10 mps 730 mmHg 80%
    05:00 +3°C° 0 mm 10 mps 731 mmHg 80%
    06:00 +3°C° 0 mm 10 mps 732 mmHg 80%
    07:00 +2°C° 0 mm 9 mps 733 mmHg 79%
    08:00 +2°C° 0 mm 9 mps 734 mmHg 79%
    09:00 +2°C° 0 mm 9 mps 735 mmHg 78%
    10:00 +3°C° 0 mm 9 mps 736 mmHg 75%
    11:00 +3°C° 0 mm 10 mps 736 mmHg 73%
    12:00 +4°C° 0 mm 11 mps 737 mmHg 71%
    13:00 +5°C° 0 mm 10 mps 737 mmHg 71%
    14:00 +5°C° 0 mm 10 mps 738 mmHg 71%
    15:00 +3°C° 0 mm 9 mps 738 mmHg 71%
    16:00 +4°C° 0 mm 8 mps 738 mmHg 74%
    17:00 +3°C° 0 mm 7 mps 738 mmHg 77%
    18:00 +3°C° 0 mm 5 mps 737 mmHg 80%
    19:00 +3°C° 0.5 mm 5 mps 737 mmHg 85%
    20:00 +4°C° 0.5 mm 4 mps 736 mmHg 90%
    21:00 +4°C° 0.5 mm 4 mps 735 mmHg 96%
    22:00 +5°C° 0.4 mm 5 mps 735 mmHg 95%
    23:00 +5°C° 0.4 mm 7 mps 735 mmHg 94%

    Mañana, 14 Diciembre, Sábado

    Tiempo Temperatura Precipitaciones Viento Presión Humedad
    00:00 +6°C° 0.4 mm 8 mps 735 mmHg 93%
    01:00 +5°C° 0 mm 8 mps 736 mmHg 85%
    02:00 +4°C° 0 mm 8 mps 737 mmHg 78%
    03:00 +3°C° 0 mm 9 mps 738 mmHg 71%
    04:00 +2°C° 0 mm 8 mps 738 mmHg 73%
    05:00 +3°C° 0 mm 7 mps 739 mmHg 75%
    06:00 +3°C° 0 mm 7 mps 739 mmHg 77%
    07:00 +3°C° 0.5 mm 7 mps 740 mmHg 82%
    08:00 +2°C° 0.5 mm 8 mps 741 mmHg 86%
    09:00 +2°C° 0.5 mm 9 mps 741 mmHg 91%
    10:00 +2°C° 0.1 mm 9 mps 742 mmHg 82%
    11:00 +3°C° 0.1 mm 9 mps 742 mmHg 74%
    12:00 +3°C° 0.1 mm 9 mps 743 mmHg 65%
    13:00 +4°C° 0 mm 8 mps 742 mmHg 67%
    14:00 +4°C° 0 mm 7 mps 742 mmHg 69%
    15:00 +4°C° 0 mm 6 mps 742 mmHg 70%
    16:00 +4°C° 0.3 mm 7 mps 741 mmHg 76%
    17:00 +4°C° 0.3 mm 7 mps 740 mmHg 82%
    18:00 +4°C° 0.3 mm 8 mps 739 mmHg 88%
    19:00 +3°C° 0.9 mm 9 mps 739 mmHg 85%
    20:00 +3°C° 0.9 mm 9 mps 738 mmHg 83%
    21:00 +5°C° 0.9 mm 10 mps 738 mmHg 81%
    22:00 +3°C° 0.2 mm 10 mps 738 mmHg 78%
    23:00 +2°C° 0.2 mm 10 mps 738 mmHg 76%

    Pasado mañana, 15 Diciembre, Domingo

    Tiempo Temperatura Precipitaciones Viento Presión Humedad
    00:00 +2°C° 0.2 mm 10 mps 739 mmHg 74%
    01:00 +2°C° 0 mm 10 mps 740 mmHg 72%
    02:00 +2°C° 0 mm 10 mps 741 mmHg 71%
    03:00 +2°C° 0 mm 9 mps 742 mmHg 70%
    04:00 +1°C° 0 mm 8 mps 742 mmHg 74%
    05:00 +2°C° 0 mm 6 mps 743 mmHg 78%
    06:00 +2°C° 0 mm 5 mps 744 mmHg 82%
    07:00 +2°C° 0.1 mm 5 mps 744 mmHg 82%
    08:00 +2°C° 0.1 mm 6 mps 744 mmHg 81%
    09:00 +3°C° 0.1 mm 6 mps 745 mmHg 80%
    10:00 +3°C° 0.2 mm 7 mps 745 mmHg 78%
    11:00 +4°C° 0.2 mm 7 mps 745 mmHg 76%
    12:00 +5°C° 0.2 mm 8 mps 745 mmHg 74%
    13:00 +5°C° 0.2 mm 7 mps 745 mmHg 75%
    14:00 +5°C° 0.2 mm 7 mps 745 mmHg 77%
    15:00 +5°C° 0.2 mm 6 mps 745 mmHg 78%
    16:00 +4°C° 0.3 mm 6 mps 745 mmHg 80%
    17:00 +4°C° 0.3 mm 7 mps 744 mmHg 82%
    18:00 +4°C° 0.3 mm 7 mps 744 mmHg 84%
    19:00 +4°C° 0.1 mm 6 mps 745 mmHg 84%
    20:00 +3°C° 0.1 mm 6 mps 745 mmHg 84%
    21:00 +3°C° 0.1 mm 5 mps 745 mmHg 84%
    22:00 +3°C° 0.1 mm 5 mps 745 mmHg 83%
    23:00 +3°C° 0.1 mm 5 mps 745 mmHg 83%

    16 Diciembre, Lunes

    Tiempo Temperatura Precipitaciones Viento Presión Humedad
    00:00 +3°C° 0.1 mm 6 mps 745 mmHg 82%
    01:00 +3°C° 0.1 mm 6 mps 745 mmHg 82%
    02:00 +4°C° 0.1 mm 6 mps 745 mmHg 82%
    03:00 +4°C° 0.1 mm 6 mps 745 mmHg 82%
    04:00 +4°C° 0 mm 6 mps 745 mmHg 81%
    05:00 +4°C° 0 mm 6 mps 745 mmHg 81%
    06:00 +4°C° 0 mm 6 mps 745 mmHg 81%
    07:00 +4°C° 0 mm 6 mps 746 mmHg 82%
    08:00 +4°C° 0 mm 6 mps 746 mmHg 82%
    09:00 +4°C° 0 mm 6 mps 747 mmHg 83%
    10:00 +4°C° 0 mm 6 mps 747 mmHg 81%
    11:00 +6°C° 0 mm 5 mps 748 mmHg 79%
    12:00 +6°C° 0 mm 5 mps 748 mmHg 77%
    13:00 +6°C° 0 mm 5 mps 748 mmHg 78%
    14:00 +6°C° 0 mm 4 mps 748 mmHg 79%
    15:00 +6°C° 0 mm 4 mps 749 mmHg 80%
    16:00 +5°C° 0 mm 3 mps 749 mmHg 83%
    17:00 +5°C° 0 mm 2 mps 749 mmHg 85%
    18:00 +4°C° 0 mm 2 mps 749 mmHg 88%
    19:00 +5°C° 0 mm 1 mps 750 mmHg 87%
    20:00 +5°C° 0 mm 1 mps 750 mmHg 87%
    21:00 +3°C° 0 mm 0 mps 751 mmHg 86%
    22:00 +3°C° 0 mm 0 mps 751 mmHg 85%
    23:00 +3°C° 0 mm 0 mps 751 mmHg 85%

    17 Diciembre, Martes

    Tiempo Temperatura Precipitaciones Viento Presión Humedad
    00:00 +3°C° 0 mm 0 mps 751 mmHg 84%
    01:00 +3°C° 0 mm 0 mps 751 mmHg 84%
    02:00 +3°C° 0 mm 0 mps 751 mmHg 84%
    03:00 +3°C° 0 mm 0 mps 751 mmHg 84%
    04:00 +3°C° 0 mm 0 mps 752 mmHg 84%
    05:00 +3°C° 0 mm 0 mps 752 mmHg 84%
    06:00 +2°C° 0 mm 0 mps 752 mmHg 84%
    07:00 +2°C° 0 mm 0 mps 752 mmHg 84%
    08:00 +3°C° 0 mm 0 mps 753 mmHg 83%
    09:00 +3°C° 0 mm 0 mps 753 mmHg 83%
    10:00 +3°C° 0 mm 0 mps 753 mmHg 80%
    11:00 +4°C° 0 mm 0 mps 753 mmHg 77%
    12:00 +5°C° 0 mm 0 mps 753 mmHg 75%
    13:00 +5°C° 0 mm 0 mps 753 mmHg 77%
    14:00 +5°C° 0 mm 0 mps 753 mmHg 79%
    15:00 +4°C° 0 mm 0 mps 753 mmHg 81%
    16:00 +3°C° 0 mm 0 mps 754 mmHg 82%
    17:00 +3°C° 0 mm 0 mps 754 mmHg 83%
    18:00 +2°C° 0 mm 0 mps 754 mmHg 84%
    19:00 +2°C° 0 mm 0 mps 755 mmHg 84%
    20:00 +2°C° 0 mm 0 mps 755 mmHg 84%
    21:00 +2°C° 0 mm 0 mps 755 mmHg 84%
    22:00 +1°C° 0 mm 0 mps 756 mmHg 85%
    23:00 +1°C° 0 mm 0 mps 756 mmHg 85%

    18 Diciembre, Miércoles

    Tiempo Temperatura Precipitaciones Viento Presión Humedad
    00:00 +2°C° 0 mm 1 mps 756 mmHg 85%
    01:00 +2°C° 0 mm 1 mps 756 mmHg 85%
    02:00 +2°C° 0 mm 1 mps 756 mmHg 86%
    03:00 +2°C° 0 mm 1 mps 756 mmHg 86%
    04:00 +2°C° 0 mm 1 mps 756 mmHg 85%
    05:00 +2°C° 0 mm 1 mps 756 mmHg 84%
    06:00 +2°C° 0 mm 1 mps 756 mmHg 83%
    07:00 +2°C° 0 mm 2 mps 757 mmHg 82%
    08:00 +2°C° 0 mm 2 mps 757 mmHg 81%
    09:00 +2°C° 0 mm 2 mps 757 mmHg 79%
    10:00 +2°C° 0 mm 3 mps 757 mmHg 77%
    11:00 +3°C° 0 mm 3 mps 757 mmHg 75%
    12:00 +4°C° 0 mm 4 mps 757 mmHg 73%
    13:00 +4°C° 0 mm 4 mps 757 mmHg 75%
    14:00 +4°C° 0 mm 4 mps 757 mmHg 78%
    15:00 +4°C° 0 mm 4 mps 756 mmHg 81%
    16:00 +3°C° 0 mm 4 mps 756 mmHg 83%
    17:00 +1°C° 0 mm 4 mps 756 mmHg 85%
    18:00 +1°C° 0 mm 4 mps 755 mmHg 87%
    19:00 0°C° 0 mm 4 mps 755 mmHg 88%
    20:00 0°C° 0 mm 5 mps 755 mmHg 88%
    21:00 0°C° 0 mm 5 mps 755 mmHg 88%
    22:00 0°C° 0 mm 5 mps 754 mmHg 89%
    23:00 0°C° 0 mm 5 mps 754 mmHg 90%
    Mostrar más